EDT,Max TemperatureF,Mean TemperatureF,Min TemperatureF,Max Dew PointF,MeanDew PointF,Min DewpointF,Max Humidity, Mean Humidity, Min Humidity, Max Sea Level PressureIn, Mean Sea Level PressureIn, Min Sea Level PressureIn, Max VisibilityMiles, Mean VisibilityMiles, Min VisibilityMiles, Max Wind SpeedMPH, Mean Wind SpeedMPH, Max Gust SpeedMPH,PrecipitationIn, CloudCover, Events, WindDirDegrees
2013-3-1,35,34,32,34,33,30,100,99,93,30.00,29.97,29.93,10,5,1,8,4,,0.00,8,Rain-Snow,350
2013-3-2,32,29,26,30,26,23,100,88,75,30.08,30.03,29.98,10,7,2,12,6,,0.00,8,Snow,10
2013-3-3,32,26,21,27,23,18,100,82,60,30.10,30.07,30.04,10,9,2,13,5,17,0.00,6,Snow,324
2013-3-4,42,30,17,28,22,16,100,68,42,30.18,30.09,30.00,10,10,10,8,4,,0.00,3,Rain,168
2013-3-5,44,38,30,45,34,25,100,85,56,30.00,29.78,29.55,10,7,1,24,8,41,0.00,8,Rain-Snow,145
2013-3-6,32,30,28,30,29,28,100,92,87,30.26,30.02,29.74,10,6,1,22,13,32,0.00,8,Snow,314
2013-3-7,33,32,32,32,29,28,100,89,81,30.38,30.33,30.25,10,9,5,6,3,,0.00,8,,314
2013-3-8,44,36,28,30,29,27,100,79,57,30.46,30.40,30.36,10,9,3,10,3,,0.00,2,,49
2013-3-9,62,45,28,37,30,27,93,59,27,30.37,30.23,30.10,10,10,10,13,5,,0.00,2,,148
2013-3-10,69,60,51,34,33,32,47,36,25,30.10,30.01,29.90,10,10,10,16,8,26,0.00,1,,209
2013-3-11,62,50,39,52,41,32,100,70,32,29.91,29.82,29.68,10,9,2,24,12,32,0.00,6,Rain,224
2013-3-12,44,38,33,34,31,28,93,78,61,30.07,30.00,29.91,10,10,10,16,8,23,0.00,7,,281
2013-3-13,35,32,28,32,24,19,100,74,56,30.34,30.18,30.05,10,10,2,20,9,32,0.00,7,Snow,304
2013-3-14,42,32,21,28,21,18,93,63,39,30.38,30.31,30.23,10,10,10,13,6,17,0.00,2,,283
2013-3-15,57,44,32,39,33,27,87,68,47,30.21,30.01,29.83,10,10,10,15,7,21,0.00,1,,241
2013-3-16,69,56,42,50,45,37,87,60,46,30.00,29.78,29.70,10,10,7,24,11,36,0.00,3,Rain,288
2013-3-17,42,37,32,37,34,32,100,96,81,30.11,30.04,29.96,10,6,2,14,9,20,0.00,8,Rain,75
2013-3-18,55,44,33,52,43,34,100,95,81,29.95,29.78,29.68,10,8,2,21,10,28,0.00,8,Rain,201
2013-3-19,46,40,33,37,25,12,93,61,27,30.14,30.04,29.88,10,10,10,23,12,34,0.00,1,,287
2013-3-20,44,35,26,23,18,10,74,53,39,30.14,30.04,29.92,10,10,10,23,9,33,0.00,2,,287
2013-3-21,32,26,19,19,15,10,86,65,44,30.05,30.00,29.95,10,10,1,13,6,21,0.00,4,Snow,297
2013-3-22,44,30,17,27,18,14,93,62,34,30.10,30.04,30.00,10,10,7,6,3,,0.00,2,,242
2013-3-23,51,42,33,32,25,18,93,54,30,30.05,29.99,29.85,10,10,10,9,2,,0.00,4,,72
2013-3-24,41,38,35,37,31,23,100,82,49,29.85,29.59,29.37,10,7,1,16,9,24,0.00,7,Rain,85
2013-3-25,37,34,32,36,31,28,100,93,87,29.96,29.67,29.46,10,5,1,21,14,32,0.00,8,Rain-Snow,287
2013-3-26,37,34,32,32,31,28,100,92,75,30.25,30.10,29.96,10,8,3,14,8,20,0.27,8,Snow,316
2013-3-27,42,36,30,30,27,25,87,73,53,30.34,30.29,30.25,10,10,10,12,6,17,0.00,6,,297
2013-3-28,48,38,28,30,27,23,100,68,46,30.37,30.33,30.30,10,10,7,9,3,,0.00,3,,306
2013-3-29,55,40,26,37,31,25,93,69,36,30.34,30.29,30.22,10,10,10,12,5,20,0.00,3,,249
2013-3-30,60,44,28,39,34,28,100,70,31,30.25,30.15,29.98,10,8,0,12,3,16,0.00,1,Fog,208
2013-3-31,55,50,44,50,45,37,100,85,58,29.97,29.87,29.83,10,8,1,13,5,20,0.11,6,Rain,259